TimeCDT,TemperatureF,Dew PointF,Humidity,Sea Level PressureIn,VisibilityMPH,Wind Direction,Wind SpeedMPH,Gust SpeedMPH,PrecipitationIn,Events,Conditions,WindDirDegrees,DateUTC
12:53 AM,46.0,45.0,96,30.06,9.0,Calm,Calm,-,N/A,,Clear,0,2013-10-09 05:53:00
1:53 AM,45.0,44.1,97,30.06,9.0,Calm,Calm,-,N/A,,Clear,0,2013-10-09 06:53:00
2:53 AM,44.1,43.0,96,30.05,8.0,Calm,Calm,-,N/A,,Clear,0,2013-10-09 07:53:00
3:53 AM,43.0,42.1,97,30.05,9.0,Calm,Calm,-,N/A,,Clear,0,2013-10-09 08:53:00
4:53 AM,43.0,42.1,97,30.05,8.0,Calm,Calm,-,N/A,,Clear,0,2013-10-09 09:53:00
5:53 AM,42.1,41.0,96,30.07,8.0,Calm,Calm,-,N/A,,Clear,0,2013-10-09 10:53:00
6:53 AM,41.0,39.9,96,30.09,8.0,Calm,Calm,-,N/A,,Clear,0,2013-10-09 11:53:00
7:53 AM,41.0,39.9,96,30.10,7.0,Calm,Calm,-,N/A,,Clear,0,2013-10-09 12:53:00
8:53 AM,48.9,46.9,93,30.12,10.0,Calm,Calm,-,N/A,,Clear,0,2013-10-09 13:53:00
9:53 AM,55.9,51.1,84,30.12,10.0,Calm,Calm,-,N/A,,Clear,0,2013-10-09 14:53:00
10:53 AM,63.0,52.0,67,30.13,10.0,Calm,Calm,-,N/A,,Clear,0,2013-10-09 15:53:00
11:53 AM,71.1,52.0,51,30.11,10.0,SE,4.6,-,N/A,,Clear,140,2013-10-09 16:53:00
12:53 PM,73.0,51.1,46,30.09,10.0,SE,4.6,-,N/A,,Clear,140,2013-10-09 17:53:00
1:53 PM,75.0,50.0,41,30.06,10.0,Calm,Calm,-,N/A,,Clear,0,2013-10-09 18:53:00
2:53 PM,77.0,52.0,42,30.05,10.0,Variable,3.5,-,N/A,,Clear,0,2013-10-09 19:53:00
3:53 PM,75.9,51.1,42,30.04,10.0,Calm,Calm,-,N/A,,Clear,0,2013-10-09 20:53:00
4:53 PM,77.0,50.0,39,30.04,10.0,Variable,3.5,-,N/A,,Clear,0,2013-10-09 21:53:00
5:53 PM,72.0,48.9,44,30.04,10.0,SSE,3.5,-,N/A,,Clear,150,2013-10-09 22:53:00
6:53 PM,64.9,52.0,63,30.05,10.0,Calm,Calm,-,N/A,,Clear,0,2013-10-09 23:53:00
7:53 PM,61.0,52.0,72,30.06,10.0,Calm,Calm,-,N/A,,Clear,0,2013-10-10 00:53:00
8:53 PM,57.0,52.0,83,30.06,10.0,Calm,Calm,-,N/A,,Clear,0,2013-10-10 01:53:00
9:53 PM,54.0,52.0,93,30.06,10.0,Calm,Calm,-,N/A,,Clear,0,2013-10-10 02:53:00
10:53 PM,53.1,51.1,93,30.07,10.0,Calm,Calm,-,N/A,,Clear,0,2013-10-10 03:53:00
11:53 PM,51.1,50.0,96,30.06,9.0,Calm,Calm,-,N/A,,Clear,0,2013-10-10 04:53:00